Погода в Хамышках

Россия / Республика Адыгея     44°05′48″N   40°07′52″E
темп.,
°C
ветер,
м/с
пор.,
м/с
влажн.,
%
обл.,
%
осадки,
мм/ч
давл.,
гПа
погр.,
м
8 марта, пн
пн800:00−12ююз33840 0.0 102370
03:00−12ююз33810 0.0 102249
06:00−11ю33800 0.0 102247
09:00−4юз23820 0.0 1020291
12:00−2зюз23820 0.0 1019976
15:00−2з238623 0.3 1018735
18:00−6юз129450 0.6 101857
21:00−10ююз339031 0.7 101965
9 марта, вт
вт900:00−10ююз34880 0.0 101888
03:00−10ююз45898 0.0 101893
06:00−10ююз348831 0.1 101892
09:00−5ююз358531 0.1 1018528
12:00−2ююз36780 0.1 10171233
15:00−2юз36764 0.2 10181258
18:00−6ююз23895 0.2 101982
21:00−8ююз239148 0.7 102262
10 марта, ср
ср1000:00−7ююз229499 1.1 102373
03:00−9юз229290 1.8 102439
06:00−10ююз239218 0.1 102441
09:00−5юз138523 0.1 1024599
12:00−2зюз137939 0.1 10221122
15:00−2сз128769 0.6 1020762
18:00−6ссв1198100 0.4 101859
21:00−7юв0196100 0.5 101837
11 марта, чт
чт1100:00−7ю1196100 0.3 101634
03:00−7всв0198100 1.3 101534
06:00−7св1198100 1.8 101374
09:00−6св2296100 2.9 1013244
12:00−6ссв3397100 1.4 1012355
15:00−7ссв3396100 3.3 1012422
18:00−10св3397100 1.2 1014318
21:00−12св2397100 2.1 1016255
12 марта, пт
пт1200:00−14св2399100 0.7 1018133
03:00−16всв2299100 0.9 101974
06:00−18вюв229796 0.1 102234
09:00−12всв128976 0.1 1023299
12:00−7ссв228756 0.0 1023587
15:00−6ссв229378 0.1 1023438
18:00−10св1199100 0.2 102545
21:00−11ю338968 0.2 102738